Location: Bucquoy
(50.1391°N, 2.7097°E)
Time: 09:09:18
(UTC+00:00)

STARLINK-2562 - Pass Details

Date: 06 May 2021
Orbit: 348 x 351 km, 53.1° (Epoch: 22 June)

Event Time Altitude Azimuth Distance (km) Brightness Sun altitude
Exits shadow 01:26:59 25° 104° (ESE) 776 4.5 -19.7°
Drops below altitude 10° 01:28:22 10° 107° (ESE) 1,329 5.7 -19.6°
Enters shadow 02:46:29 -23° 300° (WNW) 5,869 8.8 -12.4°
